Theta_e
274 274 275 274 274 274 274 274 274 274 273 273 272 272 270 268 265 263 263 265 266 269 271 269 272 275 275 275 276 276 276 277 278 277 277 277 278 280 282 283 285 286 286 287 287 288 289 291 291 293 295 297 299 300 301 303 304 305 305 307 307 308 308 308 309 307 308 308 316 321 322 323 324 325
275 275 274 274 273 274 274 274 274 273 273 272 272 271 271 270 266 265 263 263 267 267 270 271 271 273 274 275 275 275 276 278 278 277 277 277 278 281 282 283 284 285 286 286 287 288 288 289 290 291 293 296 297 299 300 303 304 305 306 307 307 308 308 308 307 308 307 308 313 320 320 321 322 323
275 274 273 273 273 274 273 273 273 273 273 272 272 271 271 270 269 267 266 263 266 269 268 270 272 272 273 274 274 275 276 277 278 277 277 278 279 281 280 282 283 284 285 286 287 288 288 289 290 291 292 295 296 298 299 301 303 305 306 307 307 307 307 308 308 307 306 306 312 318 319 320 321 320
274 273 273 273 273 273 273 272 272 272 272 272 271 271 270 270 270 269 267 265 264 269 269 270 271 273 273 274 273 274 275 277 279 277 277 278 280 278 278 281 282 283 284 285 286 287 288 288 289 290 291 293 295 297 298 300 302 303 305 306 306 307 307 308 308 308 307 307 309 318 319 319 320 320
274 273 273 272 272 273 272 272 272 272 272 271 271 271 270 269 270 269 267 265 265 268 271 271 271 272 273 272 274 273 274 275 276 278 277 278 278 278 278 278 281 282 283 284 285 286 287 287 288 289 291 292 294 296 297 299 301 303 303 304 305 306 307 308 308 308 308 307 308 312 319 319 319 318
274 273 272 272 272 272 271 271 271 271 271 270 270 270 269 269 269 270 268 267 266 266 269 270 272 272 273 271 274 273 273 274 276 275 276 277 277 277 278 278 279 281 282 284 285 286 287 287 288 289 289 291 293 294 295 297 300 301 302 303 304 305 306 307 308 308 308 308 308 308 313 318 318 319
273 272 272 271 271 271 270 270 270 270 270 270 269 269 269 269 269 270 270 268 266 266 267 270 270 271 272 272 272 274 274 275 275 274 275 275 277 278 278 278 279 281 283 284 285 286 287 287 288 289 289 290 292 293 295 296 298 299 301 302 303 303 304 305 306 307 309 308 308 308 311 315 316 317
273 272 270 271 271 270 269 268 269 269 269 269 269 269 269 269 269 270 270 270 268 268 267 269 270 271 271 272 273 274 274 273 274 274 275 276 276 277 278 278 278 280 283 284 285 285 286 287 288 288 289 290 291 292 293 295 297 298 299 300 301 302 302 302 304 306 307 309 309 309 309 313 315 316
273 271 271 270 270 269 268 267 268 268 268 268 268 268 268 269 269 270 270 270 270 268 267 268 270 271 271 272 272 273 272 273 273 274 274 275 275 276 277 278 279 282 283 284 285 285 286 286 287 288 289 290 291 292 293 295 296 297 297 298 299 300 301 301 302 303 303 304 307 309 310 313 313 310
272 271 271 270 270 269 267 267 267 267 267 267 268 268 269 269 270 270 270 270 270 269 269 269 268 270 269 270 271 272 272 272 272 272 274 274 275 275 275 277 278 280 280 280 281 283 285 285 286 287 288 290 291 292 294 295 296 296 297 297 298 299 300 301 301 301 302 302 302 304 306 308 308 306
272 271 271 270 269 268 267 267 266 267 267 268 268 269 269 270 270 269 269 269 269 268 267 268 268 268 270 270 269 272 273 273 272 271 271 271 274 275 275 275 278 279 280 283 284 284 284 285 285 286 287 289 290 291 294 296 296 296 297 297 298 299 299 300 300 300 300 301 302 302 303 303 306 306
272 271 271 270 270 269 268 268 268 268 268 268 268 270 270 270 270 269 269 268 267 267 266 267 267 268 268 269 270 272 272 271 271 272 271 270 271 273 275 275 275 277 278 278 282 285 285 285 286 288 288 288 289 290 293 294 294 295 296 297 298 298 299 299 299 300 300 299 300 300 301 301 302 304
272 271 271 271 270 270 271 272 272 271 271 269 269 270 270 270 270 269 268 266 266 266 266 266 267 267 267 268 268 268 269 269 269 271 271 270 271 271 272 273 275 276 276 278 279 282 285 284 284 285 287 289 289 290 292 293 292 294 296 297 298 298 298 299 299 299 300 299 299 300 300 300 300 301
271 271 271 271 272 271 271 271 271 271 272 273 272 271 271 270 270 268 266 265 265 265 264 265 265 265 265 266 267 267 268 270 270 269 269 268 270 271 271 273 274 277 277 277 278 281 285 286 285 285 287 291 292 292 292 293 293 294 296 297 297 298 298 298 299 299 300 300 299 299 299 300 300 300
270 271 271 271 270 270 270 269 270 271 272 273 273 274 274 274 270 267 266 265 265 265 264 265 265 264 264 265 267 267 267 268 268 268 269 269 269 268 267 267 272 276 277 277 277 280 285 287 286 286 288 291 293 294 294 294 293 295 296 297 297 298 298 298 298 299 300 300 299 299 299 299 299 299
270 270 270 270 269 268 268 268 268 269 271 272 273 274 274 273 272 271 268 266 265 265 264 264 264 264 264 264 266 266 266 267 267 268 268 268 267 267 267 268 268 273 278 277 279 281 285 288 289 289 290 292 293 295 295 295 295 295 296 297 297 297 298 298 298 299 299 299 299 299 299 299 299 298
270 270 269 269 269 268 269 268 267 267 268 271 273 273 273 271 270 270 271 271 268 266 265 264 263 264 264 263 264 266 266 267 266 266 266 267 267 268 268 269 270 272 276 276 275 278 285 289 289 289 292 293 294 295 295 296 296 296 296 296 297 297 297 298 298 299 299 299 299 299 298 298 298 298
270 269 269 268 267 267 267 267 267 267 268 270 270 269 268 267 268 269 269 269 269 268 265 264 263 264 265 263 265 266 268 266 265 265 265 267 267 267 268 270 272 273 276 274 275 274 281 289 289 288 291 294 294 295 296 296 296 296 296 296 297 297 297 298 298 298 299 299 299 298 298 298 298 298
270 270 269 268 266 266 266 266 268 269 270 270 269 267 266 266 266 266 266 266 266 266 265 265 264 265 266 266 267 267 268 268 268 269 268 268 269 269 270 271 272 272 274 275 274 271 276 288 288 289 291 293 293 295 295 296 296 296 296 296 296 297 297 298 298 298 298 298 298 298 298 298 298 297
270 270 269 267 266 266 266 268 271 272 271 269 267 266 265 265 265 266 268 270 270 267 266 266 266 267 268 271 270 270 270 269 269 269 270 269 269 268 267 267 269 270 274 276 274 274 275 286 288 289 291 292 292 294 295 295 296 296 296 296 296 297 297 298 298 298 298 298 298 298 298 298 297 297
270 269 269 267 266 266 265 268 272 273 272 268 267 265 264 264 264 265 266 268 269 269 269 270 270 271 271 271 272 272 272 270 270 268 266 265 267 266 265 266 268 269 273 277 278 278 278 286 289 289 290 291 291 292 293 294 294 295 296 296 296 297 297 298 298 298 298 298 298 298 298 298 297 296
269 269 269 268 266 265 266 270 273 273 270 267 266 264 263 263 263 264 265 265 264 267 268 268 269 269 269 269 269 269 270 270 270 266 263 265 265 264 266 268 271 274 277 281 285 281 283 288 289 288 288 288 289 291 292 292 293 293 294 295 296 296 297 298 298 298 298 298 298 298 298 297 295 295
268 268 268 268 267 267 268 271 272 272 270 267 266 264 263 263 263 264 264 263 262 262 262 262 263 263 265 264 263 264 268 268 268 266 265 265 264 264 266 269 272 273 279 281 281 283 286 286 288 288 286 284 287 288 290 290 291 292 292 293 295 295 296 296 297 298 298 298 298 298 298 296 295 296
266 267 266 267 267 268 270 271 271 271 271 268 266 264 263 263 263 265 264 263 262 261 261 261 262 262 263 263 263 263 264 264 265 265 265 265 265 265 266 268 271 275 279 278 279 280 286 287 287 288 288 286 284 287 289 289 289 290 292 292 293 293 294 294 295 296 297 298 298 298 298 297 295 296
265 265 265 264 266 268 270 270 271 270 270 269 266 265 265 266 266 267 262 261 263 261 261 261 262 262 262 262 262 262 263 263 264 264 265 265 266 266 267 270 272 274 277 276 278 278 283 287 287 287 287 287 287 287 287 288 289 290 291 292 291 293 294 295 295 296 295 296 297 297 297 297 296 296
264 264 264 263 265 268 270 270 270 269 269 269 265 266 269 269 268 263 262 261 261 260 261 261 261 261 261 260 261 261 262 262 263 263 264 265 267 269 269 272 272 271 271 275 277 276 278 284 287 286 287 287 287 287 286 287 288 289 290 291 291 291 293 294 294 295 296 296 296 296 296 297 297 296
263 263 263 263 266 269 269 269 269 268 268 266 266 269 269 267 266 263 260 260 260 260 260 260 259 260 260 260 260 261 261 262 263 263 264 266 268 269 270 274 274 273 273 274 274 275 277 282 287 287 286 287 287 287 286 285 286 289 289 290 290 291 292 294 294 294 295 295 295 295 296 296 296 296
263 262 262 264 268 268 268 268 267 267 266 265 268 268 267 265 263 260 260 259 259 259 259 259 258 259 259 259 260 260 261 262 263 263 264 266 268 268 269 272 274 273 273 273 273 273 274 277 281 282 284 286 286 286 285 287 287 287 287 289 289 290 291 292 293 292 292 294 294 295 294 294 295 295
262 264 266 267 267 267 267 267 266 264 264 266 266 266 265 262 260 259 259 259 258 258 257 258 258 259 259 259 260 261 262 263 264 263 264 266 268 268 269 271 272 272 273 273 272 272 272 273 274 276 282 286 286 287 287 286 286 286 287 287 287 289 290 291 292 292 291 292 292 293 293 293 293 293
265 265 265 265 265 264 264 263 262 261 261 265 265 264 262 259 259 259 259 258 257 257 257 257 258 258 259 260 261 262 263 262 262 262 262 264 265 266 267 268 269 271 272 272 271 271 271 272 273 274 278 284 286 286 287 286 286 286 286 287 287 288 289 289 290 291 291 291 291 291 292 295 294 293
260 261 262 263 264 264 265 264 264 263 263 261 260 259 260 260 259 259 259 258 257 257 257 257 258 259 259 260 261 260 261 261 261 262 262 262 264 265 265 266 266 268 270 271 271 270 270 271 272 273 279 284 286 286 286 286 286 286 286 287 288 285 287 289 290 290 290 291 291 290 290 292 292 293
259 259 261 262 261 261 261 261 261 260 260 260 259 259 259 260 259 259 260 260 258 257 258 258 259 259 259 258 259 260 260 260 261 262 262 262 262 264 264 264 264 265 267 268 268 269 269 270 271 273 281 282 284 285 286 286 285 286 286 286 287 287 288 288 289 290 290 290 290 290 290 291 291 291
259 259 260 260 260 260 259 259 259 259 259 259 259 258 259 259 258 258 257 256 256 256 257 257 257 257 257 258 258 259 259 259 260 261 261 262 262 263 264 262 263 263 263 264 265 266 267 268 270 274 280 279 279 282 285 283 282 284 285 285 285 285 286 288 288 289 288 289 289 290 289 290 291 291
260 260 260 260 259 259 258 258 258 258 258 257 257 258 260 258 258 257 257 256 255 256 257 257 257 257 257 257 257 258 258 259 259 261 262 260 261 261 262 262 262 263 264 263 264 264 265 266 268 274 281 280 279 278 278 277 276 278 280 281 283 284 285 286 288 288 288 289 289 288 288 288 289 289
260 259 260 259 259 258 258 258 257 258 257 257 256 257 257 258 257 257 256 255 256 256 256 257 257 257 256 256 256 257 258 258 259 259 260 260 260 260 261 261 261 262 263 263 263 264 264 264 265 269 274 278 280 278 279 278 276 275 276 277 277 279 282 284 285 287 288 288 289 287 287 288 288 288
260 259 259 259 258 257 257 258 257 258 257 256 256 257 256 256 256 256 255 256 256 256 256 256 256 256 256 256 256 257 258 258 258 258 258 259 259 259 260 261 261 261 263 263 263 264 263 263 263 264 267 270 274 274 275 278 277 276 273 273 275 277 279 281 285 285 286 287 288 287 286 286 287 288
260 259 259 258 257 257 257 258 257 257 257 256 256 256 256 256 256 256 256 257 256 255 256 256 255 255 256 256 256 257 258 257 257 257 257 258 258 258 258 259 260 261 262 263 263 263 263 262 262 261 262 264 267 268 271 274 274 279 274 272 273 276 278 280 283 285 285 285 286 286 287 287 287 287
260 259 259 258 257 257 257 257 257 257 257 257 256 256 256 256 256 256 256 256 255 255 256 256 255 255 255 255 255 255 257 257 257 256 256 257 257 257 257 258 259 260 261 262 263 263 263 262 261 261 261 260 262 264 265 268 269 274 276 273 273 276 279 281 283 285 285 285 285 286 287 286 286 287
259 259 259 258 258 257 256 256 257 257 256 256 256 255 255 255 255 255 256 255 255 254 255 256 255 255 255 255 255 255 256 256 255 255 255 256 257 257 257 257 258 259 260 260 261 262 262 261 261 261 260 260 260 262 263 262 265 271 272 276 277 276 277 278 280 284 285 285 285 285 285 286 285 285
258 258 258 258 257 257 256 256 256 256 256 256 256 255 255 254 255 255 255 255 254 254 255 255 255 255 255 255 255 255 256 255 255 255 255 255 256 257 257 257 258 258 259 259 259 260 260 260 261 261 261 262 263 264 265 265 265 267 270 276 278 277 276 277 277 280 284 285 285 285 285 285 285 285
258 258 257 257 257 256 256 256 256 256 256 256 255 256 255 255 255 255 255 256 254 254 255 255 255 254 255 255 255 255 255 255 255 255 255 255 256 257 257 257 257 257 257 257 258 258 259 261 262 264 264 265 266 268 266 267 267 269 270 273 276 277 277 278 277 279 281 285 285 285 285 284 285 285
258 258 258 257 256 256 256 256 255 256 256 256 256 255 255 256 255 258 256 255 254 254 255 255 255 255 255 255 255 255 255 254 254 254 254 255 255 256 256 256 255 256 257 256 257 258 260 262 263 264 265 265 265 265 264 265 266 268 269 271 272 274 276 277 277 279 282 283 283 284 284 284 285 284
258 258 258 257 257 256 256 256 255 255 256 255 255 255 255 256 256 256 255 255 255 254 254 255 255 255 254 255 255 255 254 254 254 254 254 254 255 255 255 255 255 256 257 257 258 259 260 261 262 263 264 263 263 264 263 264 266 267 268 268 268 270 272 274 276 278 281 284 283 282 282 282 283 282
258 258 258 257 257 256 255 255 255 256 255 255 255 255 255 255 255 255 255 254 254 254 254 254 254 254 254 254 255 255 255 254 254 254 254 254 255 255 255 255 255 256 256 256 257 258 259 260 261 262 261 260 261 262 262 263 265 267 266 266 267 267 268 269 272 275 278 283 283 283 284 283 283 283
258 258 258 257 257 257 256 256 255 255 255 255 255 255 255 255 254 255 255 254 254 253 254 254 254 254 254 254 254 254 254 256 255 254 254 254 254 255 255 255 254 255 255 256 256 256 258 259 260 261 260 260 261 261 262 264 265 266 265 264 264 265 266 267 267 269 273 277 280 280 281 283 283 283
Wind_Speed
12 11 13 11 11 11 11 11 11 12 12 12 13 12 13 14 16 17 18 18 15 13 12 12 11 11 12 12 12 13 13 15 17 14 14 14 13 17 21 21 22 23 24 22 22 22 21 21 21 21 21 20 20 19 19 19 18 18 19 17 16 17 18 18 15 13 22 24 24 26 26 23 22 24
10 11 11 11 11 11 12 11 12 12 12 13 13 12 12 12 14 15 17 21 13 15 12 11 12 12 13 13 13 13 14 18 19 15 15 14 14 20 22 23 23 24 25 24 22 22 22 21 21 21 22 21 20 20 20 20 20 19 20 18 17 16 15 15 14 12 16 26 27 21 23 23 20 21
11 12 13 12 11 12 12 13 12 12 12 12 12 12 12 13 14 14 14 19 15 7 15 13 13 15 16 14 14 13 13 16 18 15 14 15 19 23 20 23 23 24 25 24 23 21 21 20 20 21 21 21 21 21 21 21 20 20 21 20 18 15 15 12 11 12 14 21 24 15 12 18 18 16
11 12 12 12 12 11 11 12 12 12 12 12 12 13 13 13 13 13 15 17 24 14 15 16 15 16 16 16 16 16 14 14 20 15 14 15 21 15 13 19 21 22 22 23 22 21 20 20 19 20 21 21 21 21 21 21 21 20 20 20 18 15 14 14 10 11 12 18 23 15 15 11 15 14
11 12 12 13 12 11 11 11 11 12 13 13 12 12 12 13 13 13 14 17 21 17 12 14 15 15 16 16 15 16 15 15 14 16 14 15 14 14 13 13 19 21 22 22 23 22 21 20 20 20 20 21 21 21 21 22 21 20 20 17 16 16 14 14 11 10 12 15 19 19 13 14 12 13
10 11 13 12 11 11 11 11 12 11 11 12 12 12 12 12 13 13 14 15 17 22 15 15 15 15 15 17 14 15 16 16 15 16 15 13 14 13 13 13 13 20 21 22 24 23 22 21 20 20 20 20 21 21 21 22 21 20 20 15 13 14 15 15 11 10 12 14 14 18 16 11 12 15
11 13 11 11 11 9 9 11 10 11 11 11 12 13 12 14 14 14 15 14 17 20 20 16 17 15 14 15 16 16 14 15 15 16 15 14 13 12 14 13 12 18 21 22 23 24 23 21 21 21 21 21 21 21 21 22 22 20 18 15 12 11 12 12 11 14 14 15 17 16 17 11 11 13
12 12 9 10 9 8 9 9 9 9 10 10 11 13 13 13 15 15 14 14 15 17 20 17 15 15 16 14 14 14 14 15 15 14 14 14 14 14 13 14 13 15 22 23 23 24 24 23 22 22 21 21 20 20 21 22 20 18 17 15 13 12 12 11 11 12 13 12 15 17 17 17 11 9
12 9 10 9 8 8 9 9 9 9 12 11 12 13 13 14 14 13 13 14 14 16 19 19 16 15 15 15 15 14 15 14 14 14 14 13 14 14 14 13 13 18 23 24 25 25 26 24 23 22 22 21 20 20 22 23 20 18 16 14 13 13 12 11 11 12 13 12 12 13 15 16 13 8
9 8 8 8 7 8 8 9 10 10 12 12 13 15 14 14 14 14 15 15 15 15 17 18 19 15 16 15 13 13 13 14 13 13 13 13 13 13 14 13 12 11 11 10 11 17 20 23 25 24 22 22 21 21 23 21 19 18 17 16 13 13 13 13 12 12 14 13 11 11 14 14 12 11
7 7 7 7 7 8 7 8 8 10 12 12 14 15 15 13 14 16 14 15 14 16 17 18 17 17 14 14 14 12 12 13 13 14 14 13 11 11 12 13 11 10 12 16 21 19 17 16 12 18 23 22 21 21 21 19 18 17 18 17 15 14 13 14 14 13 15 15 14 12 13 13 11 11
6 7 6 6 7 6 5 7 10 12 12 12 13 13 13 14 16 14 12 11 12 15 15 15 15 14 14 13 13 12 12 11 11 10 11 13 12 11 11 12 12 12 12 12 12 13 17 20 21 20 19 22 22 21 21 19 16 17 18 18 18 16 15 14 15 15 15 15 16 15 14 12 11 10
8 8 6 5 5 8 13 18 16 16 16 13 13 14 13 14 13 9 9 11 12 13 13 14 13 13 13 13 12 11 10 10 11 11 11 13 13 13 13 13 13 12 12 11 12 13 11 11 11 11 10 12 18 20 22 16 18 18 17 19 19 19 18 16 16 16 16 15 15 15 15 14 12 11
8 8 8 7 13 14 15 14 15 16 19 22 18 16 15 14 11 10 10 12 12 12 13 13 13 13 13 12 11 12 13 12 12 13 13 13 13 13 13 13 11 10 11 11 12 13 12 11 10 11 11 10 12 10 12 13 13 15 20 20 20 20 20 19 17 16 16 16 16 15 15 14 13 12
8 8 9 9 9 10 11 10 15 17 20 22 24 25 23 20 14 13 13 13 12 12 13 12 12 12 15 14 12 12 13 11 11 11 12 12 12 12 12 13 11 9 10 11 12 14 12 11 11 10 11 11 8 10 11 16 20 20 20 22 21 21 20 19 18 17 17 17 16 15 14 14 13 13
8 8 9 8 7 6 8 9 11 15 22 24 25 23 23 22 19 18 15 15 14 12 12 13 12 12 14 14 12 12 11 11 12 12 12 12 12 13 13 13 12 10 7 9 11 13 11 10 10 10 10 9 9 10 12 17 19 21 21 20 21 21 20 20 19 18 17 17 16 15 14 14 13 14
8 8 8 9 7 6 11 10 10 12 15 20 21 24 22 19 19 18 20 20 16 14 13 13 14 12 12 14 13 11 12 12 15 13 12 13 13 13 14 14 13 14 9 9 10 13 11 9 9 10 9 9 10 11 14 17 17 19 21 21 20 21 21 20 20 19 18 18 17 16 15 15 14 14
8 8 8 7 8 7 7 9 12 13 13 13 16 14 13 12 15 17 19 19 19 16 13 13 15 13 12 15 15 15 14 15 15 13 14 13 14 14 15 15 15 16 9 9 8 11 12 10 10 10 9 8 9 9 11 15 17 18 20 21 21 21 21 21 20 20 19 19 18 17 16 16 16 15
8 9 8 7 7 8 8 9 14 15 14 16 14 14 14 12 12 12 11 11 10 11 10 12 14 15 15 15 16 15 14 16 15 13 15 15 15 15 15 15 16 17 13 11 8 10 13 10 10 10 9 8 8 7 9 12 13 15 17 20 21 20 20 20 20 20 20 19 19 18 17 17 16 16
8 8 7 6 7 8 10 14 21 20 16 14 14 14 14 14 13 12 12 16 17 15 13 12 13 13 15 20 17 16 14 13 11 11 11 11 11 12 12 13 12 13 10 10 11 10 13 12 12 9 7 7 8 7 6 9 12 13 15 17 19 19 19 20 20 20 20 19 19 18 18 17 16 16
8 7 7 6 8 9 9 15 21 22 20 12 13 13 14 14 14 14 12 15 19 19 20 21 22 23 23 22 21 22 22 15 11 8 8 9 9 10 12 13 10 14 8 7 12 11 13 12 11 8 7 7 6 5 4 3 7 12 15 17 18 18 18 19 20 19 20 20 19 19 18 17 16 16
8 8 10 9 8 9 10 17 21 21 17 12 12 12 14 16 15 14 14 13 14 17 19 20 21 22 21 20 21 21 20 18 13 7 7 9 7 8 9 10 9 10 9 8 7 14 11 7 9 8 4 3 2 3 3 4 5 10 13 17 18 18 19 19 20 20 20 20 19 19 18 17 14 10
6 7 6 9 10 10 13 19 19 20 16 11 10 11 12 12 14 13 14 15 16 15 13 10 11 12 14 12 11 12 19 18 14 9 9 9 8 8 8 8 8 9 8 2 7 7 6 6 5 7 5 4 2 3 4 5 5 5 6 9 11 16 18 19 19 20 20 20 19 19 18 16 13 7
6 6 5 7 10 14 17 18 18 18 18 12 10 9 9 10 11 12 12 13 13 14 12 12 11 11 11 10 10 9 9 10 10 9 8 8 8 8 8 9 9 9 2 5 9 3 0 4 5 5 6 4 5 4 5 4 5 5 6 7 7 12 15 15 15 19 18 18 18 18 17 16 13 8
6 5 4 5 10 16 18 17 17 17 17 15 9 8 9 10 14 16 11 13 17 12 12 11 11 10 9 7 7 7 7 7 8 8 8 8 9 8 9 8 7 6 2 6 13 4 2 3 5 5 3 1 2 5 4 5 5 5 5 7 7 7 8 9 8 10 14 17 17 17 16 16 17 11
5 5 5 6 11 17 17 16 16 16 16 16 8 10 16 19 19 12 9 8 9 9 10 10 10 10 11 10 8 8 7 7 8 9 8 8 7 6 8 7 6 5 4 9 13 5 4 3 5 5 4 4 1 5 5 4 4 5 5 5 6 5 7 8 8 8 8 8 9 11 12 16 16 17
5 4 5 7 14 17 15 14 15 15 16 11 10 18 18 18 18 13 6 8 8 8 9 10 10 10 11 12 12 11 11 10 9 9 9 10 11 10 8 7 4 4 5 6 8 6 3 4 2 2 3 4 2 3 4 5 4 5 5 5 5 4 5 7 8 7 8 8 8 13 13 13 15 15
4 5 5 8 15 15 13 13 13 14 13 11 17 17 18 18 13 7 7 7 8 8 9 9 10 11 10 11 10 11 11 11 11 11 11 10 10 9 8 7 4 6 7 6 7 7 5 4 4 6 4 2 4 4 3 2 4 6 6 4 3 4 4 6 6 5 5 5 7 7 7 7 8 10
4 8 11 13 12 12 12 13 12 10 12 16 17 17 17 14 6 7 7 7 8 8 9 9 9 10 10 10 10 11 11 11 10 9 6 8 9 8 6 5 5 7 7 8 9 9 7 6 5 6 4 1 1 2 3 3 5 5 5 6 5 5 6 6 6 7 6 5 5 7 8 7 8 7
9 9 9 10 11 10 9 7 6 6 8 14 16 16 13 6 7 7 8 8 7 7 7 8 9 10 11 11 11 11 10 10 11 12 11 11 15 13 12 10 8 7 9 10 8 8 7 6 6 5 4 3 2 1 0 3 2 4 5 7 5 3 3 3 5 5 7 7 5 5 5 6 6 6
3 5 5 5 9 8 10 9 8 7 9 7 8 7 7 6 7 7 8 8 7 7 8 8 8 9 9 10 10 11 11 11 11 10 10 8 13 11 11 7 13 12 10 10 7 10 8 8 7 5 4 2 2 1 0 1 3 4 4 4 6 7 6 7 6 5 6 6 5 3 3 4 5 6
2 3 5 5 3 4 4 4 3 4 4 6 6 7 7 6 7 9 11 9 5 5 6 7 8 8 9 9 10 10 10 10 11 11 11 11 11 13 10 13 16 12 14 16 15 16 13 11 10 8 5 4 1 2 3 3 2 1 3 4 3 1 4 8 8 7 6 5 6 7 5 6 6 5
3 2 2 2 3 3 4 4 5 5 6 5 6 5 7 7 7 7 7 9 9 9 8 9 9 10 9 9 9 9 9 10 10 11 10 10 8 9 7 8 12 13 13 15 12 15 16 15 14 8 8 8 9 7 4 6 6 5 2 1 2 2 1 5 6 7 7 8 8 7 7 6 6 6
1 0 1 1 2 3 3 4 5 6 6 6 7 6 9 8 7 8 7 8 9 9 9 9 9 10 9 9 10 10 10 10 9 11 13 10 10 10 11 11 9 7 7 9 9 12 13 15 14 10 3 8 14 15 11 7 7 7 7 6 6 2 1 1 4 6 8 9 9 8 7 7 6 5
0 0 0 1 2 2 2 3 4 5 6 6 6 7 6 6 7 8 7 8 9 9 9 9 8 8 9 9 9 9 10 10 10 10 9 8 9 10 10 10 11 13 11 11 11 12 11 12 13 12 9 5 7 11 17 12 7 8 6 7 6 6 6 5 3 3 7 6 6 7 6 6 6 5
0 0 0 1 1 2 2 2 3 4 5 5 6 6 6 6 6 8 8 9 8 8 8 9 9 9 9 9 9 9 9 10 9 10 11 11 11 11 9 9 9 8 8 10 10 10 10 10 10 12 10 9 8 8 10 13 12 8 8 7 6 6 6 6 4 1 3 5 6 7 7 7 7 5
0 0 0 0 0 1 2 2 2 3 3 4 5 5 5 6 6 6 7 8 7 7 8 8 8 9 9 9 9 9 9 10 10 11 10 10 9 9 10 9 10 9 9 9 8 9 9 9 10 10 9 10 11 9 6 5 10 10 9 6 7 7 7 6 5 1 1 1 3 4 6 5 4 5
1 1 0 0 0 0 1 2 2 2 3 3 4 4 4 4 5 6 6 6 7 7 7 7 7 8 8 9 9 9 8 9 8 9 9 10 11 11 10 9 10 10 8 9 9 9 8 8 9 9 8 7 7 8 9 8 7 9 15 9 6 8 7 6 5 2 0 1 1 2 3 4 3 3
1 1 1 0 0 0 0 1 2 2 2 2 3 4 5 4 5 5 5 5 6 7 7 7 7 8 8 8 8 9 10 11 10 10 10 10 9 10 11 10 10 10 9 10 9 9 9 10 9 7 7 6 4 5 4 5 6 9 14 17 9 8 8 9 7 6 1 1 1 1 2 2 3 2
1 0 1 1 1 0 0 0 1 1 2 2 2 2 3 4 4 5 5 6 6 6 6 6 7 8 7 7 8 7 7 9 10 9 9 8 8 8 8 8 8 9 8 10 11 10 10 10 11 10 8 7 7 8 7 8 8 7 8 8 15 12 9 8 8 7 4 2 0 2 2 2 3 1
2 2 2 1 1 0 0 0 1 1 2 1 1 3 2 3 3 3 4 5 4 5 5 5 6 6 7 7 7 7 8 8 8 8 8 8 9 10 11 11 8 9 9 10 9 10 10 10 12 18 14 7 10 6 2 3 6 9 10 11 16 18 16 12 8 8 6 3 2 2 3 3 3 3
3 2 2 2 2 1 1 0 0 1 1 1 2 2 2 2 2 6 5 4 4 4 4 5 5 6 6 6 7 7 7 8 8 9 9 9 9 10 11 10 9 9 9 10 10 9 10 11 11 9 6 8 7 8 9 8 8 9 10 10 11 16 18 20 20 16 9 6 5 3 0 0 1 1
3 2 2 2 2 2 1 1 1 1 1 1 1 2 2 2 2 3 3 4 4 4 4 5 5 5 5 5 6 6 6 7 7 8 9 9 9 10 10 10 9 8 8 8 8 8 10 10 11 11 10 8 8 6 7 7 6 8 10 11 13 12 13 18 19 18 15 6 9 3 3 3 3 1
3 2 2 2 2 2 2 2 1 1 0 1 1 1 1 2 2 2 2 3 3 4 4 4 4 5 5 6 5 5 5 6 6 7 8 8 8 8 8 9 9 9 9 8 9 10 10 10 11 10 11 11 9 8 8 7 7 8 8 9 9 11 12 12 13 13 13 10 16 17 12 6 6 9
3 3 3 2 2 2 2 2 2 1 1 1 1 1 1 1 1 2 1 2 2 3 3 3 4 4 5 5 5 6 6 8 6 5 6 7 7 7 7 9 9 10 10 10 10 11 11 10 9 9 10 10 9 7 7 7 8 9 10 11 12 11 10 11 12 13 11 10 13 20 20 15 12 9
Wind_Direction
301 301 303 302 303 301 299 298 297 299 300 298 297 295 293 297 297 301 301 294 301 300 300 301 298 302 304 305 305 304 300 299 300 299 295 293 290 289 289 288 288 289 289 286 285 283 281 279 278 278 279 279 279 280 281 277 269 265 269 268 274 279 288 296 300 314 300 304 267 215 208 214 194 192
303 303 306 307 302 299 299 299 300 300 299 297 296 295 293 291 289 292 295 294 292 294 296 291 298 302 303 303 300 297 295 293 295 293 292 291 288 288 289 288 287 286 285 284 281 279 278 276 274 274 274 275 276 276 277 276 268 259 260 267 266 277 281 285 296 302 304 301 289 216 208 208 198 191
303 307 306 301 297 301 303 304 305 300 298 296 296 295 293 289 287 286 287 289 286 292 295 295 293 298 298 297 295 294 293 293 293 292 289 288 288 289 287 285 282 280 280 280 277 275 274 272 269 269 269 270 271 271 272 270 269 263 262 260 266 266 274 275 282 292 293 293 290 228 226 211 199 191
303 305 300 298 302 305 306 307 305 299 296 297 296 294 290 288 283 282 281 278 284 291 290 293 296 295 296 297 296 294 293 292 291 290 288 287 290 288 285 284 281 278 277 277 276 273 271 270 268 266 265 265 267 268 267 265 263 262 261 262 260 264 265 268 266 272 267 269 297 239 207 208 188 174
302 300 299 303 302 303 303 303 301 297 297 297 293 292 290 286 284 282 282 282 287 288 287 291 295 295 296 292 290 291 292 291 290 287 285 284 284 284 283 282 280 278 276 276 275 273 269 268 266 263 261 262 263 264 264 262 260 258 258 257 257 257 260 261 257 259 246 262 269 290 206 195 172 152
299 299 302 300 300 301 301 303 301 301 298 296 293 290 288 287 284 283 284 284 285 292 293 289 287 289 288 287 288 289 291 290 289 290 291 290 287 285 284 281 279 277 276 275 275 273 270 266 264 259 256 256 258 260 261 260 255 255 259 260 250 250 248 252 253 247 240 233 249 263 275 187 184 166
297 303 301 296 298 305 306 302 299 301 296 293 291 289 289 287 286 284 280 283 285 288 291 292 292 291 290 288 292 291 289 290 293 293 291 289 285 281 280 280 278 277 276 274 273 273 271 266 262 258 253 251 251 256 256 254 252 252 261 265 258 247 245 247 239 249 236 229 230 234 254 253 184 167
301 305 297 294 299 305 303 300 300 298 297 295 294 292 290 290 290 288 285 280 280 286 290 292 291 292 292 289 289 291 291 289 287 284 284 282 283 282 279 278 277 276 275 274 272 272 270 265 261 258 253 247 248 250 252 250 250 250 254 256 255 251 246 236 237 236 253 241 225 223 230 241 228 184
303 299 291 292 298 301 298 301 298 300 298 294 290 288 287 283 281 280 283 283 282 284 285 289 288 290 288 289 290 289 287 285 281 282 282 283 283 282 279 278 276 277 277 274 271 269 267 264 259 255 251 248 247 247 246 244 244 247 250 251 248 248 246 239 228 230 241 253 245 228 228 226 211 203
302 287 287 287 293 293 293 293 297 296 294 291 286 284 285 285 282 281 287 288 287 283 285 288 293 289 288 287 283 282 280 284 287 287 286 286 283 283 281 276 274 272 268 267 264 262 261 258 255 251 248 246 245 245 243 240 238 239 241 243 242 243 242 239 231 216 229 233 238 233 232 232 210 190
294 288 284 284 283 284 282 287 288 288 288 291 292 292 288 286 292 296 293 291 290 291 288 286 283 285 282 278 282 283 283 282 285 288 291 287 282 279 279 280 279 278 276 269 262 257 258 258 249 235 235 241 244 245 242 239 234 231 235 236 236 234 235 235 234 223 219 220 214 220 225 226 218 196
292 286 282 276 280 280 274 276 288 293 295 294 291 293 298 299 297 292 293 298 296 290 284 281 283 282 286 284 279 282 281 279 277 276 283 287 291 288 284 283 285 283 279 282 283 259 251 253 255 251 233 224 227 234 241 241 234 229 227 232 230 230 228 229 230 227 225 217 212 211 214 219 218 208
293 293 291 284 277 287 291 300 300 298 300 301 303 305 303 301 296 295 302 300 295 288 284 283 282 283 282 280 284 283 281 280 283 292 294 287 287 288 287 281 275 271 273 272 272 270 252 242 233 231 231 222 219 226 226 229 227 224 224 224 227 226 226 224 224 225 225 222 215 210 209 211 214 213
296 297 294 293 298 302 302 302 304 306 305 307 306 307 309 308 310 310 306 301 291 288 285 283 286 283 279 281 281 283 282 287 288 285 282 280 282 283 278 278 273 274 271 271 269 268 257 241 231 224 227 223 205 213 214 217 217 214 217 221 221 223 223 221 221 221 221 221 216 211 207 206 208 209
299 297 298 300 305 308 307 308 311 310 309 308 310 307 308 313 316 314 305 297 293 289 286 285 284 279 280 278 281 280 284 283 283 284 284 282 285 280 282 280 279 252 249 254 262 262 252 239 233 223 222 221 216 201 212 205 211 212 212 215 218 219 219 219 218 218 219 218 216 213 207 203 203 206
298 301 304 306 308 307 307 314 311 306 302 302 299 309 315 315 313 305 302 300 299 295 289 287 282 282 278 284 284 283 284 285 285 280 279 278 277 277 273 272 273 272 266 275 267 255 245 234 230 228 220 216 219 217 207 208 207 211 212 210 212 214 216 215 216 216 216 216 215 212 210 206 204 204
300 304 307 306 310 309 314 314 305 292 292 293 308 319 316 314 310 308 307 304 298 297 293 288 287 281 287 285 279 280 284 285 281 282 277 273 271 267 268 268 273 274 274 278 278 278 250 228 222 229 225 218 214 218 209 204 205 206 210 212 209 209 211 211 210 211 212 213 212 211 209 209 208 207
301 306 306 308 309 313 315 310 299 295 289 311 322 318 316 310 309 308 307 309 302 297 292 288 283 286 282 278 279 278 278 277 272 270 266 266 267 267 267 275 274 272 274 268 286 292 274 225 220 220 222 221 216 214 207 199 203 204 205 208 210 208 207 207 207 207 208 209 210 210 208 208 208 209
302 304 306 308 306 309 310 300 302 305 320 326 322 319 312 312 311 310 306 304 307 307 300 290 284 283 279 275 277 272 262 257 259 261 268 272 272 272 273 270 264 269 258 247 251 262 269 236 212 216 211 215 222 207 210 198 196 205 207 207 208 208 206 206 205 205 206 207 208 209 210 209 209 209
302 303 310 312 307 308 301 300 309 324 330 328 324 318 315 314 314 311 310 315 320 318 310 299 294 292 291 289 287 289 290 291 292 283 275 270 266 267 264 257 262 258 252 212 210 240 261 250 207 205 201 214 218 203 202 195 199 206 208 205 204 203 203 204 205 205 205 206 207 209 210 210 210 211
302 303 312 314 309 306 300 304 319 330 335 329 324 320 316 314 317 317 318 319 323 321 318 318 317 316 315 313 312 313 310 305 299 296 288 271 259 247 244 253 254 257 252 227 207 219 242 232 192 190 194 210 213 204 192 198 198 209 211 207 203 201 201 202 204 206 207 206 207 208 209 208 207 207
301 302 308 311 309 303 302 312 329 334 338 329 325 322 317 317 320 321 326 324 321 318 316 317 321 323 322 321 322 317 314 317 319 305 282 282 289 279 268 262 255 267 256 227 203 202 232 194 174 178 178 169 206 184 186 203 223 213 216 211 205 202 200 201 203 205 206 206 206 207 206 205 199 196
299 299 308 311 306 305 311 324 331 336 336 331 327 322 316 316 319 323 327 323 320 323 320 309 308 313 321 316 300 303 316 320 316 294 278 279 268 268 271 274 282 279 244 58 328 210 209 153 162 156 147 176 175 191 185 185 214 207 204 208 208 204 200 200 202 203 206 206 206 206 204 201 189 191
301 301 312 314 312 312 320 328 333 336 337 334 329 320 315 317 318 323 322 316 319 310 302 295 293 290 286 294 296 287 299 306 298 293 280 272 265 260 262 260 253 269 322 11 1 307 249 154 171 173 155 160 182 179 183 187 199 209 195 198 201 203 201 200 203 205 206 207 207 205 203 197 186 192
302 312 317 316 309 314 323 331 336 338 337 338 333 318 315 324 323 327 319 314 317 306 302 303 308 304 310 300 287 292 294 302 306 292 279 270 258 252 258 268 299 291 350 2 348 303 315 183 171 169 186 210 165 148 175 175 187 200 196 196 197 192 187 196 195 202 206 205 205 204 202 197 190 192
301 306 316 310 306 314 325 333 340 341 339 340 334 324 332 334 336 336 319 309 314 312 316 319 317 322 326 327 322 317 313 305 310 314 302 291 278 266 259 285 326 315 321 335 345 336 320 264 170 154 175 175 229 142 153 180 179 190 190 194 196 182 180 186 192 195 194 195 201 200 202 200 198 200
296 307 306 302 303 317 327 335 343 343 342 341 332 336 342 342 339 339 327 323 321 318 321 328 328 327 331 333 334 334 333 329 321 318 315 322 328 320 309 308 345 325 322 338 342 334 309 295 331 133 169 172 197 161 158 163 161 166 181 193 186 180 177 181 191 193 186 190 193 192 198 202 202 203
294 297 291 298 311 323 330 340 345 343 341 337 341 343 350 348 344 338 335 335 330 325 333 338 335 334 329 325 327 331 326 318 316 318 325 329 338 326 313 308 344 5 6 3 357 356 349 335 342 5 348 195 191 181 172 146 126 165 168 166 167 171 178 185 193 194 193 182 181 181 179 196 201 202
274 281 299 311 318 325 335 343 347 341 336 341 344 345 352 350 342 343 344 341 337 340 344 336 326 326 330 321 308 303 300 298 303 309 298 334 350 339 321 313 360 8 12 11 8 3 1 356 341 329 315 281 231 219 191 169 151 167 169 152 176 193 183 191 188 190 193 187 180 182 192 188 196 192
290 295 309 316 321 327 331 338 340 328 330 340 345 345 345 348 347 343 343 348 343 338 332 328 329 323 320 319 311 305 301 335 344 339 336 347 7 354 1 7 18 16 26 15 9 6 0 352 347 319 299 282 235 254 181 131 131 158 167 183 168 118 181 177 189 184 186 195 187 185 189 192 189 177
303 301 316 312 316 315 326 336 335 335 333 336 339 344 335 350 348 344 347 346 332 333 327 324 321 316 313 305 319 335 343 346 343 343 338 343 360 348 348 357 21 12 13 18 27 16 359 357 351 319 304 283 188 227 317 60 128 147 175 170 159 178 191 190 196 195 185 185 188 189 181 186 188 184
290 298 310 316 318 323 333 339 341 343 339 340 339 341 332 345 347 346 345 343 329 325 318 310 315 317 327 336 334 334 344 346 341 345 346 347 345 353 337 24 17 2 9 10 7 5 6 3 353 334 348 352 49 126 65 61 51 118 154 171 195 196 117 182 189 196 185 163 176 190 194 186 192 187
244 249 289 328 334 349 342 347 346 343 343 340 338 331 338 343 348 346 351 351 343 334 334 338 338 335 334 333 338 339 346 348 340 344 344 343 339 328 4 27 13 9 359 0 353 357 1 354 349 330 32 38 40 34 72 73 28 11 28 62 143 159 182 190 188 188 164 175 186 189 193 192 191 196
267 295 316 349 348 345 344 347 352 344 345 340 338 340 347 346 348 348 349 348 338 333 337 335 339 342 338 339 341 342 345 334 343 348 357 342 347 357 6 9 4 348 2 2 355 355 346 355 351 341 23 64 62 54 43 55 38 18 16 14 10 18 17 273 199 173 181 186 183 184 190 194 194 187
258 345 349 356 355 349 337 356 349 347 343 342 336 339 338 344 347 346 346 344 337 335 337 341 344 339 344 341 335 338 343 339 334 342 341 352 359 5 359 5 3 6 1 360 3 0 354 351 356 3 11 11 78 72 57 41 37 17 6 24 7 355 349 343 308 196 179 184 176 179 186 195 198 191
157 9 6 5 8 344 337 1 349 350 346 340 339 336 340 344 348 346 343 340 338 334 340 345 346 348 348 344 336 331 342 341 342 345 350 360 0 357 359 4 360 347 354 6 359 357 2 1 4 14 21 12 39 52 39 26 25 33 19 357 344 343 322 323 310 291 200 186 184 177 185 194 197 187
167 174 97 25 6 340 333 351 346 346 349 342 337 340 339 337 338 337 331 333 336 332 340 348 345 344 344 344 334 337 346 352 349 350 354 352 357 355 358 355 1 352 354 359 354 356 4 5 13 14 9 20 32 30 354 344 354 27 31 356 336 340 324 310 309 242 190 189 184 192 194 184 196 189
197 180 153 151 358 292 306 329 338 341 349 336 336 335 336 330 330 327 332 346 345 332 337 347 346 343 346 347 344 341 345 349 345 354 353 353 358 2 358 347 352 350 340 352 354 5 360 7 17 16 21 23 1 6 351 335 337 358 357 346 322 329 331 332 332 311 126 119 192 213 190 185 169 154
209 185 171 160 143 219 290 309 314 342 335 339 341 339 333 330 329 331 344 347 344 334 333 345 345 344 342 345 346 345 351 353 358 358 353 352 353 355 351 348 351 344 345 355 352 2 3 11 6 7 11 358 337 301 293 299 309 313 320 320 343 340 357 346 332 331 340 94 81 42 47 46 63 57
188 199 167 156 175 180 229 287 302 333 312 334 339 327 328 327 326 334 338 345 342 331 330 339 341 340 342 347 345 345 351 1 1 357 349 341 341 346 348 345 349 341 344 358 360 356 2 0 352 351 328 308 265 252 263 265 268 263 283 327 4 4 346 343 347 332 328 22 122 171 159 140 170 183
172 197 180 179 166 184 229 250 271 288 296 312 305 324 329 308 322 328 328 342 334 331 335 340 341 342 345 344 347 350 356 354 356 352 348 343 343 351 351 350 352 354 359 359 354 353 353 343 318 305 293 273 278 232 212 328 348 344 341 338 346 352 352 356 344 336 322 316 280 227 186 185 184 165
179 193 170 164 179 184 197 223 271 283 293 328 329 325 308 313 295 334 337 335 330 332 333 341 344 347 344 347 346 352 360 354 352 353 351 350 352 355 359 7 358 349 1 1 348 326 319 324 322 312 327 340 344 23 31 8 346 337 337 331 328 344 350 353 351 352 342 10 4 2 306 329 167 178
176 186 176 173 166 180 193 196 221 256 288 320 301 308 303 322 332 340 338 342 343 345 339 340 347 347 343 342 345 349 351 349 353 350 349 351 355 357 358 0 354 347 349 336 324 321 333 334 346 349 2 16 8 12 15 342 336 342 344 345 344 330 334 349 349 348 348 38 55 37 340 314 326 289
177 181 174 164 174 176 190 190 210 228 267 271 287 293 315 326 328 330 340 341 347 341 332 338 346 349 342 342 341 350 356 347 346 350 349 347 349 354 354 351 349 349 348 343 332 343 343 350 0 356 10 14 358 356 355 341 353 359 351 338 332 344 349 339 341 349 356 355 9 357 353 332 269 266
173 180 174 167 175 174 182 183 193 198 210 250 265 282 288 290 324 316 332 342 345 327 326 341 347 344 337 338 344 352 352 350 344 348 346 342 347 349 354 353 350 350 358 350 344 349 355 353 355 4 17 15 2 352 333 334 347 356 356 354 349 347 351 349 347 349 341 334 345 346 339 335 342 325